Location: Cluj-Napoca
(46.7712°N, 23.6236°E)
Time: 21:54:15
(UTC+02:00)

ISS - Pass Details

Date: 25 January 2020
Orbit: 415 x 423 km, 51.6° (Epoch: 28 February)

Event Time Altitude Azimuth Distance (km) Brightness Sun altitude
Rises 20:10:11 0° 277° (W) 2,379 1.3 -29.4°
Reaches altitude 10° 20:12:24 10° 287° (WNW) 1,513 -0.1 -29.8°
Enters shadow 20:13:07 15° 292° (WNW) 1,251 -0.6 -29.9°
